Date String (YYYY-MM-DD hh:mm:ss) UTC,Instrument flags,absolute air pressure of the measurement (hPa),sample flow rate (lpm),inlet stack bypass flow (lpm),air temperature of the measurement (°C),ambient temperature measured by the external sensor (°C),aerosol sample conditioner tube jacket temperature (°C),OPC LED temperature (°C),internal box temperature (°C),relative humidity of the measurement (%),span deviation,mass concentration of particles derived from Lorenz-Mie calculation of OPC scattering (μg/m³),mass concentration of particles derived from Lorenz-Mie calculation of OPC scattering (μg/m³),mass concentration of particles derived from Lorenz-Mie calculation of OPC scattering (μg/m³)
DateTimeUTC,F1_M11,P_M11,Q1_M11,Q2_M11,T1_M11,T2_M11,T3_M11,T4_M11,T5_M11,U1_M11,ZSPAN_M11,X0_M11,X2_M11,X1_M11
2023-06-15 15:00:00,SystemResetWarning,0826.0,5.00,000.00,030.3,026.2,000.0,038.9,031.5,21.2,0000.0,0004.57,0001.89,0001.36
2023-06-15 15:01:00,SystemResetWarning,0826.0,4.99,000.00,030.3,026.6,000.0,038.9,031.5,22.4,0000.0,0004.35,0001.86,0001.35
2023-06-15 15:02:00,SystemResetWarning,0826.0,4.99,000.00,030.2,027.0,000.0,038.8,031.5,22.8,0000.0,0004.25,0001.85,0001.35
2023-06-15 15:03:00,SystemResetWarning,0826.0,5.01,000.00,030.2,027.3,000.0,038.8,031.6,22.7,0000.0,0005.73,0001.89,0001.37
2023-06-15 15:04:00,SystemResetWarning,0826.0,5.01,000.00,030.2,027.6,000.0,038.8,031.6,23.7,0000.0,0005.88,0001.96,0001.40
2023-06-15 15:05:00,SystemResetWarning,0826.0,5.00,000.00,030.2,027.8,000.0,038.8,031.6,24.3,0000.0,0005.87,0002.04,0001.43
2023-06-15 15:06:00,SystemResetWarning,0826.0,5.00,000.00,030.2,028.0,000.0,038.8,031.7,24.9,0000.0,0004.94,0002.10,0001.46
2023-06-15 15:07:00,SystemResetWarning,0826.0,4.99,000.00,030.2,028.2,000.0,038.8,031.7,26.2,0000.0,0004.87,0002.15,0001.49
2023-06-15 15:08:00,SystemResetWarning,0826.0,5.00,000.00,030.2,028.3,000.0,038.8,031.7,26.2,0000.0,0005.08,0002.25,0001.53
2023-06-15 15:09:00,SystemResetWarning,0826.0,5.00,000.00,030.2,028.4,000.0,038.8,031.7,26.3,0000.0,0005.72,0002.32,0001.58
2023-06-15 15:10:00,SystemResetWarning,0826.0,5.01,000.00,030.2,028.4,000.0,038.8,031.7,26.9,0000.0,0006.10,0002.39,0001.61
2023-06-15 15:11:00,SystemResetWarning,0826.0,5.01,000.00,030.2,028.5,000.0,038.8,031.7,26.9,0000.0,0006.35,0002.45,0001.65
2023-06-15 15:12:00,SystemResetWarning,0826.0,5.01,000.00,030.3,028.6,000.0,038.8,031.7,26.2,0000.0,0006.79,0002.54,0001.69
2023-06-15 15:13:00,SystemResetWarning,0826.0,4.99,000.00,030.3,028.6,000.0,038.8,031.8,25.9,0000.0,0008.03,0002.68,0001.73
2023-06-15 15:14:00,SystemResetWarning,0826.0,4.99,000.00,030.3,028.7,000.0,038.8,031.8,27.0,0000.0,0007.58,0002.74,0001.78
2023-06-15 15:15:00,SystemResetWarning,0826.0,5.01,000.00,030.3,028.7,000.0,038.9,031.8,26.0,0000.0,0007.92,0002.84,0001.80
2023-06-15 15:16:00,SystemResetWarning,0826.0,5.01,000.00,030.3,028.7,000.0,038.9,031.9,27.0,0000.0,0008.52,0002.85,0001.81
2023-06-15 15:17:00,SystemResetWarning,0826.0,5.01,000.00,030.3,028.8,000.0,038.9,031.9,27.5,0000.0,0008.70,0002.84,0001.80
2023-06-15 15:18:00,SystemResetWarning,0826.0,5.01,000.00,030.4,028.8,000.0,038.9,031.9,27.1,0000.0,0008.69,0002.80,0001.80
2023-06-15 15:19:00,SystemResetWarning,0826.0,4.99,000.00,030.4,028.8,000.0,038.9,031.9,25.9,0000.0,0008.63,0002.76,0001.79
2023-06-15 15:20:00,SystemResetWarning,0826.0,4.99,000.00,030.4,028.9,000.0,038.9,032.0,25.5,0000.0,0008.50,0002.72,0001.78
2023-06-15 15:21:00,SystemResetWarning,0826.0,5.00,000.00,030.4,028.9,000.0,038.9,031.9,26.4,0000.0,0008.24,0002.70,0001.76
2023-06-15 15:22:00,SystemResetWarning,0826.0,5.00,000.00,030.4,028.9,000.0,038.9,031.9,27.0,0000.0,0008.21,0002.68,0001.74
2023-06-15 15:23:00,SystemResetWarning,0826.0,5.01,000.00,030.5,029.0,000.0,039.0,032.0,27.2,0000.0,0008.49,0002.72,0001.73
2023-06-15 15:24:00,SystemResetWarning,0826.1,5.00,000.00,030.5,029.0,000.0,039.0,032.0,27.7,0000.0,0007.96,0002.64,0001.71
2023-06-15 15:25:00,SystemResetWarning,0826.0,4.99,000.00,030.5,029.0,000.0,039.0,032.0,26.8,0000.0,0007.55,0002.58,0001.71
2023-06-15 15:26:00,SystemResetWarning,0826.0,5.00,000.00,030.5,029.0,000.0,039.0,032.0,27.1,0000.0,0007.22,0002.49,0001.67
2023-06-15 15:27:00,SystemResetWarning,0826.0,5.00,000.00,030.5,029.0,000.0,039.0,032.1,27.1,0000.0,0006.26,0002.41,0001.66
2023-06-15 15:28:00,SystemResetWarning,0826.1,4.99,000.00,030.5,028.4,000.0,039.0,032.1,27.5,0000.0,0005.53,0002.37,0001.65
2023-06-15 15:29:00,SystemResetWarning,0826.1,5.01,000.00,030.5,026.3,000.0,038.9,032.0,28.0,0000.0,0005.49,0002.39,0001.65
2023-06-15 15:30:00,SystemResetWarning,0826.1,5.01,000.00,030.5,025.6,000.0,038.9,031.9,27.8,0000.0,0005.74,0002.40,0001.65
2023-06-15 15:31:00,SystemResetWarning,0826.0,5.01,000.00,030.4,025.8,000.0,038.9,031.6,27.8,0000.0,0006.01,0002.41,0001.65
2023-06-15 15:32:00,SystemResetWarning,0826.0,5.00,000.00,030.3,026.2,000.0,038.9,031.6,28.1,0000.0,0005.77,0002.36,0001.65
2023-06-15 15:33:00,SystemResetWarning,0826.0,4.99,000.00,030.2,026.6,000.0,038.9,031.6,28.0,0000.0,0006.27,0002.38,0001.66
2023-06-15 15:34:00,SystemResetWarning,0826.0,5.00,000.00,030.2,027.0,000.0,038.9,031.6,27.1,0000.0,0005.81,0002.36,0001.66
2023-06-15 15:35:00,SystemResetWarning,0826.0,5.00,000.00,030.2,027.3,000.0,038.9,031.6,27.5,0000.0,0005.62,0002.44,0001.66
2023-06-15 15:36:00,SystemResetWarning,0826.0,5.00,000.00,030.2,027.6,000.0,038.8,031.6,27.8,0000.0,0005.60,0002.48,0001.65
2023-06-15 15:37:00,SystemResetWarning,0826.0,4.99,000.00,030.2,027.8,000.0,038.8,031.7,28.1,0000.0,0005.55,0002.52,0001.67
2023-06-15 15:38:00,SystemResetWarning,0826.0,5.00,000.00,030.2,028.0,000.0,038.8,031.7,28.0,0000.0,0005.40,0002.52,0001.67
2023-06-15 15:39:00,SystemResetWarning,0826.0,5.00,000.00,030.2,028.2,000.0,038.8,031.7,27.9,0000.0,0005.59,0002.52,0001.67
2023-06-15 15:40:00,SystemResetWarning,0826.0,5.00,000.00,030.2,028.3,000.0,038.8,031.7,28.1,0000.0,0005.48,0002.48,0001.65
2023-06-15 15:41:00,SystemResetWarning,0826.1,5.00,000.00,030.2,028.4,000.0,038.8,031.8,28.1,0000.0,0005.47,0002.45,0001.64
2023-06-15 15:42:00,SystemResetWarning,0826.1,5.00,000.00,030.3,028.5,000.0,038.8,031.8,28.0,0000.0,0005.30,0002.44,0001.64
2023-06-15 15:43:00,SystemResetWarning,0826.1,5.00,000.00,030.3,028.6,000.0,038.8,031.8,28.5,0000.0,0005.45,0002.47,0001.64
2023-06-15 15:44:00,SystemResetWarning,0826.1,5.00,000.00,030.3,028.7,000.0,038.8,031.8,28.5,0000.0,0005.36,0002.46,0001.63
2023-06-15 15:45:00,SystemResetWarning,0826.1,5.00,000.00,030.3,028.7,000.0,038.9,031.8,28.6,0000.0,0005.15,0002.41,0001.63
2023-06-15 15:46:00,SystemResetWarning,0826.2,4.99,000.00,030.3,028.8,000.0,038.9,031.9,27.9,0000.0,0005.05,0002.34,0001.63
2023-06-15 15:47:00,SystemResetWarning,0826.2,5.00,000.00,030.3,028.8,000.0,038.9,031.9,27.9,0000.0,0005.18,0002.29,0001.63
2023-06-15 15:48:00,SystemResetWarning,0826.2,5.00,000.00,030.4,028.9,000.0,038.9,031.9,27.4,0000.0,0005.21,0002.25,0001.61
2023-06-15 15:49:00,SystemResetWarning,0826.2,5.00,000.00,030.4,028.9,000.0,038.9,031.9,27.0,0000.0,0005.11,0002.20,0001.60
2023-06-15 15:50:00,SystemResetWarning,0826.2,5.00,000.00,030.4,028.9,000.0,038.9,032.0,26.8,0000.0,0005.02,0002.21,0001.60
2023-06-15 15:51:00,SystemResetWarning,0826.2,5.00,000.00,030.4,029.0,000.0,038.9,032.0,27.2,0000.0,0005.14,0002.25,0001.59
2023-06-15 15:52:00,SystemResetWarning,0826.2,5.00,000.00,030.4,029.0,000.0,038.9,032.0,27.4,0000.0,0004.93,0002.25,0001.58
2023-06-15 15:53:00,SystemResetWarning,0826.2,5.00,000.00,030.5,029.0,000.0,039.0,032.0,27.1,0000.0,0004.77,0002.24,0001.58
2023-06-15 15:54:00,SystemResetWarning,0826.2,4.99,000.00,030.5,028.5,000.0,039.0,032.1,27.2,0000.0,0004.78,0002.21,0001.57
2023-06-15 15:55:00,SystemResetWarning,0826.2,5.00,000.00,030.5,026.3,000.0,038.9,032.0,27.1,0000.0,0004.31,0002.19,0001.56
2023-06-15 15:56:00,SystemResetWarning,0826.2,5.01,000.00,030.5,025.5,000.0,038.9,031.9,28.2,0000.0,0004.31,0002.20,0001.57
2023-06-15 15:57:00,SystemResetWarning,0826.2,5.01,000.00,030.3,025.6,000.0,038.8,031.5,28.0,0000.0,0004.83,0002.18,0001.56
2023-06-15 15:58:00,SystemResetWarning,0826.2,5.00,000.00,030.2,026.0,000.0,038.8,031.5,27.7,0000.0,0004.75,0002.17,0001.56
2023-06-15 15:59:00,SystemResetWarning,0826.2,4.99,000.00,030.2,026.4,000.0,038.8,031.5,29.1,0000.0,0004.53,0002.14,0001.56
